Flag for Canada Weather past 2 weeks in Saint-Georges, Quebec, Canada

Now
-4 °F

Frigid.


Feels Like: -4 °F
Forecast: 11 / 26 °F
Wind: 2 mph from South

Location: Beauceville

Current Time: Dec 20, 2014 at 8:09:48 AM

Latest Report: Dec 20, 2014 at 7:00 AM


Visibility: N/A

Pressure: 30.34 "Hg

Humidity: 86%

Dew point: -7 °F

Location of Saint-GeorgesLocation

Historic Weather in Saint-Georges — Graph

°F

Saint-Georges temperature yesterday

Maximum temperature yesterday: 26 °F (at 1:00 AM)
Minimum temperature yesterday: 7 °F (at 11:00 PM)
Average temperature yesterday: 20 °F

Past Weeks' High & Low Weather Summary

 TemperatureHumidityPressure
High37 °F (Dec 11, 1:00 PM)100% (Dec 12, 3:00 AM)30.82 "Hg (Dec 12, 3:00 AM)
Low-9 °F (Dec 8, 6:00 AM)50% (Dec 5, 2:00 PM)29.55 "Hg (Dec 11, 4:00 AM)
Average24 °F88%30.06 "Hg
* Reported Dec 5 6:00 AM — Dec 20 6:00 AM, Saint-Georges, Weather by CustomWeather, © 2014

Note: Actual official high and low records may vary slightly from our data, if they occured in-between our weather recording intervals... More about our weather records

Advertising

Saint-Georges weather history for previous 24 hours

 ConditionsComfort  
Time TempWeatherWind HumidityBarometerVisibility
6:00 AM
Dec 20
-1 °FFrigid.2 mph89%30.32 "HgN/A
5:00 AM-1 °FFrigid.1 mph89%30.30 "HgN/A
4:00 AM1 °FFrigid.3 mph88%30.28 "HgN/A
3:00 AM0 °FFrigid.No wind89%30.27 "HgN/A
2:00 AM3 °FFrigid.No wind90%30.24 "HgN/A
1:00 AM6 °FFrigid.2 mph92%30.23 "HgN/A
12:00 AM7 °FFrigid.1 mph92%30.22 "HgN/A
11:00 PM
Dec 19
7 °FFrigid.No wind90%30.20 "HgN/A
10:00 PM10 °FCold.1 mph92%30.19 "HgN/A
9:00 PM11 °FCold.2 mph92%30.17 "HgN/A
8:00 PM12 °FCold.No wind92%30.14 "HgN/A
7:00 PM15 °FCold.2 mph91%30.13 "HgN/A
6:00 PM15 °FCold.1 mph89%30.11 "HgN/A
5:00 PM18 °FCold.2 mph91%30.07 "HgN/A
4:00 PM20 °FCold.2 mph90%30.06 "HgN/A
3:00 PM22 °FCold.2 mph86%30.04 "HgN/A
2:00 PM24 °FCold.3 mph85%30.01 "HgN/A
1:00 PM25 °FCold.5 mph80%29.98 "HgN/A
12:00 PM23 °FCold.6 mph83%29.97 "HgN/A
11:00 AM23 °FCold.6 mph84%29.98 "HgN/A
10:00 AM22 °FCold.5 mph84%29.98 "HgN/A
9:00 AM21 °FCold.3 mph89%29.96 "HgN/A
Weather by CustomWeather, © 2014

See weather overviewHow to use our weather pages